Temperature
23 23 22 21 20 20 23 23 23 24 24 24 24 24 23 21 21 21 21 22 21 21 20 20 20 20 20 20 20 20 20 20 19 19 19 19 19 19 19 19 19 19 19 19 19 19 19 19 19
24 23 22 21 21 22 23 24 23 24 24 24 24 23 21 20 20 21 21 21 21 21 21 21 21 20 20 20 20 20 20 20 20 20 20 20 20 20 20 19 19 19 19 19 19 19 19 19 19
24 23 22 20 22 23 25 25 24 25 25 25 23 22 21 20 20 21 21 21 21 21 21 21 21 21 21 20 20 20 20 20 20 20 20 20 19 19 19 19 19 19 19 19 19 19 19 19 19
24 23 23 21 24 24 25 25 24 24 24 24 23 21 20 21 22 22 21 21 21 21 21 21 21 21 21 21 20 20 20 20 20 20 20 20 20 19 19 19 19 19 19 19 19 19 19 19 19
24 24 21 21 23 25 25 25 25 25 24 23 22 21 20 21 22 22 21 21 21 21 21 21 21 21 21 21 21 21 20 20 20 20 20 20 20 19 19 19 19 19 19 19 19 19 19 18 18
24 21 21 22 23 25 26 26 25 25 23 23 22 20 20 21 21 21 21 21 21 21 21 21 21 21 21 21 21 20 20 20 20 19 19 19 20 19 19 19 19 19 19 19 19 19 19 18 18
23 20 22 23 23 24 26 26 26 24 23 23 22 19 19 20 21 21 21 21 21 21 21 20 20 21 21 21 21 20 20 19 19 19 19 19 19 19 19 18 18 18 18 18 18 18 18 18 18
24 20 22 22 24 25 26 26 26 25 24 23 23 21 19 21 21 21 21 20 20 20 20 20 20 20 20 20 20 20 20 19 19 19 19 19 19 19 19 18 18 18 18 18 18 18 18 18 18
23 19 21 23 24 25 26 26 26 26 24 23 23 24 24 22 21 20 20 19 19 20 20 20 20 20 20 20 19 19 19 19 19 19 19 19 19 19 19 18 18 18 18 18 18 18 18 18 18
22 19 21 23 25 25 25 26 26 24 23 23 23 23 23 21 20 20 20 20 19 20 20 20 20 20 20 19 19 19 19 19 19 19 19 19 19 19 18 18 18 18 17 17 18 18 18 18 18
22 20 22 23 25 25 25 26 27 24 23 24 24 23 22 21 20 21 21 21 21 20 20 20 20 20 20 20 19 19 19 19 19 19 19 19 18 18 18 18 18 18 18 18 17 17 18 18 18
22 22 23 25 26 25 26 26 26 25 27 28 27 26 24 22 22 22 22 21 20 20 20 20 20 20 20 20 20 20 20 19 19 19 19 18 18 18 18 18 17 17 17 17 18 18 17 17 18
22 22 24 25 26 26 26 25 26 27 28 27 26 25 24 24 24 23 22 21 21 20 20 20 20 20 20 20 20 19 19 19 19 19 18 18 18 18 18 18 17 17 17 17 17 18 17 17 18
23 23 24 25 26 25 26 26 25 27 27 26 25 24 24 23 22 21 21 21 21 21 20 20 20 20 20 20 20 20 19 19 19 18 18 18 18 18 18 18 18 18 17 17 17 17 17 18 18
23 22 22 24 25 26 26 25 25 27 26 24 23 22 22 22 22 22 22 22 21 21 21 21 20 20 20 20 20 20 19 18 18 18 18 18 18 18 18 18 18 17 17 17 17 17 17 18 18
22 21 22 22 23 25 25 25 25 26 24 22 22 21 21 22 22 22 22 22 22 21 21 21 21 21 20 20 20 19 19 18 18 18 18 18 18 18 18 17 18 17 17 17 17 17 17 17 18
19 20 21 21 22 23 24 23 23 23 22 21 21 21 22 22 22 22 22 22 21 21 21 21 21 21 21 20 20 19 19 18 18 18 18 18 17 17 17 17 18 18 18 18 18 18 17 17 17
21 21 21 21 22 23 22 21 20 21 21 20 20 20 21 22 22 21 21 21 21 21 21 21 20 20 20 20 19 19 18 18 18 18 17 17 17 17 17 17 18 18 18 18 18 17 17 17 17
21 21 20 21 22 22 21 19 18 19 20 19 19 19 19 20 19 20 20 20 20 20 20 19 19 19 19 19 18 18 18 18 17 17 17 17 17 17 18 18 18 18 18 17 17 17 17 17 17
21 21 20 21 21 22 21 19 18 18 18 18 18 18 19 19 19 19 19 20 20 20 20 19 19 19 19 19 19 18 18 18 18 17 17 17 17 18 18 18 18 17 17 17 16 16 16 16 16
21 21 20 21 21 20 21 19 18 17 17 17 17 17 18 18 19 20 20 20 20 20 20 19 19 19 19 19 18 18 18 18 17 17 18 18 18 18 18 18 17 17 17 16 16 16 15 15 16
21 21 21 21 20 18 20 19 18 15 16 16 16 16 17 18 18 18 18 18 18 19 19 19 19 19 19 18 18 18 18 18 18 18 18 18 17 17 17 17 17 17 16 16 15 15 15 15 15
21 21 20 20 20 18 18 18 16 15 16 16 15 15 16 16 17 17 17 17 17 18 19 19 19 19 19 18 17 17 17 17 17 17 17 17 17 17 17 17 17 16 15 15 15 15 14 14 15
20 19 17 15 16 17 18 17 16 15 16 16 15 16 16 17 17 17 17 17 17 17 18 18 19 19 18 17 16 16 16 16 16 16 16 16 16 16 16 16 16 15 15 15 14 14 14 14 14
18 17 15 16 15 16 16 16 15 16 15 15 15 15 16 17 17 17 16 16 16 16 17 17 17 17 17 16 16 15 15 15 15 16 16 16 16 16 16 15 15 15 15 14 14 14 14 14 14
17 16 15 16 15 14 15 15 15 16 15 15 15 15 15 16 16 16 16 15 15 15 15 16 16 16 15 15 15 14 14 14 15 15 15 16 15 15 15 14 14 14 14 14 14 14 13 13 13
17 15 15 13 14 13 13 14 14 15 14 14 14 14 15 16 16 16 16 15 15 14 14 15 15 15 15 14 14 13 13 14 14 15 15 14 14 14 14 14 14 14 13 13 14 13 13 13 13
16 14 12 13 14 13 13 13 13 15 14 13 13 14 15 16 16 16 16 15 15 14 14 14 14 14 14 14 13 13 13 14 14 14 14 13 13 13 14 14 14 13 13 13 13 13 13 13 13
15 14 12 11 12 12 12 13 13 14 14 13 13 15 15 15 16 15 15 15 15 14 14 14 14 14 14 13 13 13 13 13 13 13 13 13 14 13 13 13 13 12 13 13 13 13 13 13 13
15 13 12 13 13 11 11 12 14 13 12 12 13 15 15 15 15 14 14 14 14 14 14 14 14 13 13 13 13 13 13 13 13 13 13 14 14 13 13 13 12 12 12 12 12 12 12 12 12
Wind_Speed
3 3 3 3 3 4 3 4 2 1 1 1 5 4 6 5 4 3 4 12 13 15 17 20 20 20 18 17 16 15 15 14 13 13 13 14 13 12 10 9 8 8 7 6 5 5 6 6 7
2 3 3 3 3 2 4 3 2 3 5 5 6 4 4 2 2 6 8 11 16 15 18 19 21 20 19 17 16 15 15 14 13 13 12 12 12 12 11 9 8 7 6 5 4 4 5 5 6
3 3 4 4 2 3 4 2 3 5 6 4 4 4 3 4 6 6 7 14 14 13 17 20 23 21 20 19 17 16 15 14 12 12 11 10 9 9 9 8 7 6 5 5 5 4 4 4 5
2 3 4 4 3 4 3 1 3 7 4 3 5 4 2 4 8 7 12 14 14 11 16 20 23 22 21 20 19 17 15 14 12 10 9 8 7 7 6 6 6 5 5 5 5 5 4 4 4
3 4 5 4 5 5 3 5 7 4 4 4 6 5 2 2 8 15 14 14 14 10 13 18 22 21 21 20 19 17 15 13 12 10 9 8 7 6 6 5 5 5 5 5 5 5 5 5 5
4 4 4 3 7 6 3 6 7 3 3 4 6 6 3 4 12 14 14 12 11 11 11 16 22 21 20 19 18 16 15 13 11 10 9 8 8 7 7 7 7 6 6 5 5 5 6 6 7
4 4 3 2 6 7 6 3 8 6 4 5 6 6 3 6 9 13 11 10 9 7 8 10 16 19 19 18 17 16 14 12 11 10 9 9 8 8 8 8 8 8 8 8 7 7 8 7 8
5 4 2 2 3 5 6 3 3 6 3 4 6 7 7 8 10 10 9 8 8 7 7 7 11 13 15 16 16 15 14 13 11 11 10 10 10 9 9 9 10 11 11 11 10 10 10 10 10
4 4 3 4 3 5 6 5 2 6 6 4 4 6 7 16 15 12 9 9 9 10 7 6 7 9 10 11 13 13 13 13 12 11 12 11 10 9 9 9 11 13 13 13 13 13 14 13 13
5 3 6 5 2 4 6 4 3 6 6 4 2 6 14 18 17 17 16 17 16 14 12 9 8 8 9 10 9 10 10 12 13 11 9 9 8 9 9 11 14 15 16 16 16 16 16 15 12
5 6 5 5 5 5 4 5 3 9 7 10 9 14 22 19 17 18 18 18 16 14 13 11 9 8 9 7 8 8 9 10 11 11 10 8 8 9 10 10 13 15 15 13 14 14 13 12 12
3 6 6 6 5 5 4 4 3 10 12 8 13 22 26 23 22 21 19 16 12 12 13 10 10 9 9 9 8 8 7 7 7 9 10 8 7 7 8 8 11 11 11 10 11 10 11 11 13
5 6 5 7 11 7 5 6 6 10 9 6 14 20 24 24 21 15 13 12 12 14 14 13 13 12 9 7 6 7 8 9 10 11 12 13 8 6 7 7 9 10 11 9 8 8 8 9 10
4 6 7 9 9 5 4 4 3 10 4 10 16 20 20 18 14 11 12 12 12 13 14 13 14 14 11 10 8 6 8 10 11 12 14 15 13 9 7 7 7 8 10 10 8 8 6 6 6
3 5 7 5 4 4 2 6 5 6 8 11 13 13 13 12 12 13 14 14 14 13 12 13 14 13 13 12 11 8 9 10 9 11 13 14 14 12 9 7 7 8 10 9 7 7 6 6 7
4 4 4 8 5 6 1 6 9 3 11 11 11 11 11 12 12 11 12 12 12 12 13 15 15 15 15 13 12 8 10 10 10 11 12 14 14 13 8 6 7 10 9 6 6 6 5 6 7
6 4 4 8 5 5 1 7 9 4 11 12 13 13 13 11 11 10 10 11 11 13 13 15 15 15 16 15 12 10 9 9 10 10 9 11 12 12 9 6 7 9 6 6 6 6 5 6 7
3 4 5 7 7 6 6 7 9 3 7 9 9 10 11 12 7 1 1 3 5 6 8 9 10 11 11 9 8 8 8 7 6 7 8 10 10 10 8 5 6 6 5 6 6 7 6 6 7
2 2 5 6 6 5 5 7 10 8 3 2 2 3 4 4 7 10 9 7 5 5 5 5 7 8 7 6 7 7 7 6 5 5 8 9 8 6 5 3 4 4 5 6 6 5 7 6 4
1 2 4 5 6 5 4 6 7 10 6 6 6 6 5 5 6 7 8 8 8 7 6 5 6 7 8 7 6 4 4 4 4 5 5 6 5 4 2 1 2 3 4 6 7 6 5 4 4
3 3 3 5 6 6 5 6 7 7 9 10 9 6 4 4 4 3 3 3 3 4 5 4 4 5 7 7 4 3 3 2 2 3 3 3 3 3 2 1 2 4 4 6 8 7 8 6 4
3 2 2 2 4 4 4 3 3 6 8 8 9 8 7 6 5 3 2 3 4 5 4 2 1 1 3 4 6 8 6 4 3 2 2 2 2 2 2 1 2 3 3 4 6 6 5 6 7
3 3 1 0 3 1 3 2 4 4 5 7 8 8 8 7 6 4 2 4 5 5 4 4 3 3 2 1 3 4 4 4 3 3 3 1 1 0 1 1 1 1 1 2 3 4 4 3 5
3 4 5 5 4 1 2 1 6 4 2 4 6 8 7 8 7 6 5 3 4 4 4 4 4 3 4 3 2 4 7 7 6 4 3 1 0 0 2 2 2 2 1 2 2 2 3 2 2
8 7 6 7 5 5 4 3 8 5 5 5 6 8 7 7 7 7 7 7 6 6 6 5 3 3 4 5 5 5 5 5 5 4 4 3 1 1 2 2 2 1 1 2 2 2 2 2 2
3 6 5 3 4 6 6 5 6 5 4 5 7 8 8 8 8 8 8 8 8 8 7 5 4 3 4 4 5 6 6 4 3 4 4 4 2 1 2 2 2 3 3 3 3 2 2 2 2
5 4 5 6 1 4 7 8 8 3 6 8 9 9 10 10 9 9 9 9 9 9 8 6 4 4 5 7 7 7 7 6 5 4 3 2 2 1 3 4 5 4 4 4 4 4 4 3 2
4 7 6 4 2 5 7 6 5 7 9 10 10 10 10 10 9 9 9 9 9 9 8 6 5 5 6 7 8 7 8 7 6 5 4 3 2 2 4 5 5 4 4 4 4 3 5 5 4
4 5 5 5 5 5 5 8 7 9 9 8 10 9 9 10 9 8 7 7 7 7 4 2 1 2 3 5 6 7 7 6 6 5 5 4 3 4 5 5 4 4 4 4 4 5 5 5 5
7 8 8 5 6 6 4 9 7 8 8 8 10 9 9 9 8 6 6 5 4 2 1 1 1 1 1 4 6 8 7 6 5 5 4 4 5 6 6 5 4 4 4 4 5 6 5 5 5
Wind_Direction
220 171 136 121 61 38 319 273 250 312 25 340 129 142 140 150 180 192 140 142 143 151 159 159 158 156 153 149 146 142 139 136 132 130 130 132 135 139 139 135 133 135 138 136 134 141 140 136 136
206 147 110 86 83 23 288 240 225 193 161 115 88 89 95 118 81 120 143 150 148 152 158 160 162 162 160 157 155 153 150 147 143 140 139 139 141 146 151 153 152 154 157 154 152 157 159 164 167
212 169 114 91 144 199 270 230 186 153 164 113 92 78 126 171 154 158 163 146 142 150 158 165 165 167 167 165 164 163 161 158 152 146 143 144 145 148 154 162 167 169 173 185 187 186 182 184 194
141 72 67 67 282 244 242 128 142 141 167 94 106 97 92 159 157 154 148 147 146 151 162 171 168 171 172 171 172 171 170 167 162 154 151 154 158 162 166 174 184 189 195 204 200 203 207 210 211
68 79 47 352 295 274 233 145 139 155 146 115 126 125 81 70 128 141 150 154 151 152 164 177 172 173 175 176 177 176 174 173 170 166 167 172 177 182 188 197 212 218 215 219 224 224 226 232 237
52 66 72 314 301 298 272 162 143 141 113 128 136 131 159 138 141 153 156 157 155 156 162 177 176 177 179 180 179 181 181 180 180 180 186 193 199 205 204 212 223 234 233 230 237 241 244 249 250
104 103 153 245 294 320 349 156 152 144 160 179 154 124 143 162 165 155 154 148 148 148 152 170 179 181 183 184 184 186 187 188 191 193 196 206 218 223 227 232 236 240 240 237 241 251 258 263 261
119 104 125 246 266 306 337 19 128 125 159 148 148 156 182 178 156 146 139 141 148 152 155 163 171 177 183 189 192 191 193 196 200 204 206 212 224 235 243 243 246 249 248 244 246 253 257 259 260
84 79 193 224 222 292 333 359 98 114 123 180 199 179 173 147 146 146 150 159 169 175 169 165 163 163 168 179 194 196 200 203 208 214 218 218 221 237 253 254 254 257 259 257 257 259 260 260 259
90 153 228 233 229 285 306 310 176 133 155 200 124 112 134 149 157 166 173 179 184 187 184 177 169 159 159 173 177 181 189 196 203 209 219 220 218 228 245 256 259 261 263 263 263 261 260 261 257
146 197 243 258 250 250 277 300 164 147 203 212 186 155 152 164 172 180 184 187 189 188 188 185 175 166 166 167 166 177 183 189 197 203 209 217 227 232 241 250 259 263 265 265 263 265 260 256 253
220 236 232 263 263 267 246 255 187 184 222 214 171 159 164 177 185 188 188 187 183 185 190 183 178 178 180 176 178 184 189 190 194 201 206 212 229 236 238 244 252 256 257 254 252 252 257 262 261
226 261 255 264 289 276 260 226 220 230 246 127 146 163 177 187 192 190 186 184 182 188 190 186 184 186 188 187 187 191 200 200 199 204 211 215 222 234 238 244 252 258 257 253 250 247 250 259 265
245 259 280 283 286 279 283 299 185 248 181 142 161 178 186 191 188 184 185 186 188 193 194 190 192 193 191 195 198 199 206 211 208 211 217 219 223 230 232 240 247 255 255 253 248 245 247 257 262
268 297 317 315 308 291 287 312 247 252 147 161 178 186 186 189 189 195 192 190 192 195 196 196 200 199 198 200 201 202 208 214 220 222 224 225 225 226 228 234 245 253 257 255 252 254 255 260 260
27 33 351 310 323 318 282 278 280 213 158 173 184 190 195 199 197 198 199 197 195 195 199 202 203 201 202 203 202 203 207 208 217 221 222 224 223 222 222 229 240 244 242 238 244 251 257 259 259
21 13 331 313 319 337 3 264 290 222 175 182 189 196 202 210 212 204 200 201 204 208 209 209 208 203 203 203 203 204 204 206 207 205 207 214 214 212 209 221 236 240 237 237 243 246 240 257 263
313 330 325 307 307 342 359 316 329 300 192 195 198 205 212 218 228 345 329 220 226 233 238 240 231 223 209 204 206 207 205 202 192 188 195 204 211 211 206 221 241 244 249 255 253 257 251 251 261
268 300 305 288 307 342 2 359 354 14 54 31 330 313 309 330 14 19 12 7 359 342 323 284 249 238 212 199 199 199 202 197 194 192 191 192 196 192 189 215 248 255 258 267 272 274 271 261 242
206 31 344 315 334 360 6 16 7 31 32 31 23 13 9 355 352 5 6 7 4 347 329 286 248 241 226 214 208 202 192 194 187 175 162 163 157 140 135 161 281 282 279 280 274 263 266 259 219
80 82 342 308 329 9 32 15 12 10 26 31 22 7 348 325 310 326 340 337 337 316 305 283 258 245 243 232 213 194 170 145 146 147 130 101 96 89 74 12 302 285 274 278 278 267 259 264 250
344 279 302 325 22 330 17 298 347 350 11 19 9 356 339 324 307 290 254 241 231 230 222 209 217 242 257 237 214 201 187 176 165 136 117 108 99 90 65 0 302 287 281 282 287 286 276 273 278
274 327 34 158 160 325 355 199 283 352 358 346 348 350 343 335 328 313 268 224 218 220 206 178 150 138 131 235 212 182 128 114 115 112 117 134 115 80 52 4 350 354 355 345 350 342 315 279 279
355 44 41 42 82 223 232 197 263 218 214 290 317 327 328 326 324 315 301 273 250 252 245 215 169 146 124 140 154 144 131 136 144 147 162 164 121 18 15 13 22 24 48 33 18 12 359 343 306
51 54 11 356 4 257 292 247 242 215 203 216 259 279 291 298 302 301 297 291 283 277 276 269 213 177 164 163 154 139 129 139 152 159 167 157 146 80 15 17 14 15 25 17 14 22 7 360 359
92 123 146 248 264 289 312 257 254 217 209 230 251 263 274 273 273 275 277 282 285 285 285 268 234 201 178 154 131 121 123 134 150 169 171 164 151 124 43 32 25 21 20 17 17 16 2 3 10
126 138 153 140 217 284 287 300 304 224 257 258 259 262 265 268 266 264 269 271 275 278 277 259 221 190 167 151 145 142 151 160 163 167 156 133 120 112 65 50 39 30 25 23 18 6 356 351 355
90 137 104 126 214 281 293 283 252 255 248 253 256 261 268 273 272 273 276 275 271 264 263 252 213 186 169 165 163 161 165 164 158 150 135 123 121 98 69 56 53 47 38 27 14 353 344 344 341
119 109 111 120 156 183 267 272 230 234 245 259 268 271 276 279 278 282 287 293 286 269 249 243 211 165 174 178 170 162 158 158 156 147 135 127 98 76 70 63 59 45 28 12 2 343 339 352 353
175 173 155 168 216 193 211 268 260 248 266 265 274 282 284 283 285 292 299 317 333 330 74 94 76 67 214 182 162 156 153 152 145 129 113 94 75 70 71 68 56 35 24 13 2 344 348 3 14
Height
1511 1510 1510 1511 1514 1519 1518 1511 1507 1505 1505 1505 1506 1508 1508 1511 1515 1518 1512 1515 1521 1525 1529 1532 1535 1538 1540 1542 1545 1546 1548 1549 1551 1552 1553 1554 1555 1557 1558 1559 1560 1561 1561 1562 1562 1562 1562 1563 1563
1511 1510 1512 1512 1518 1526 1519 1506 1506 1504 1504 1504 1506 1508 1508 1509 1509 1509 1510 1514 1519 1524 1528 1531 1535 1539 1541 1543 1545 1547 1549 1550 1552 1553 1555 1555 1556 1557 1558 1559 1560 1561 1562 1563 1563 1563 1563 1563 1563
1510 1510 1512 1514 1518 1521 1513 1504 1504 1503 1504 1505 1507 1509 1509 1508 1508 1510 1512 1515 1518 1523 1528 1531 1534 1538 1541 1543 1545 1548 1550 1552 1553 1555 1556 1557 1558 1558 1559 1560 1561 1562 1562 1563 1563 1563 1564 1563 1563
1510 1511 1511 1517 1515 1509 1505 1502 1503 1505 1506 1507 1508 1510 1510 1510 1510 1512 1514 1516 1519 1522 1527 1530 1534 1537 1540 1543 1545 1548 1550 1552 1554 1555 1557 1557 1558 1559 1559 1560 1561 1562 1562 1562 1563 1563 1564 1564 1563
1509 1509 1515 1521 1514 1505 1500 1500 1502 1504 1505 1507 1508 1510 1510 1511 1512 1514 1516 1517 1520 1523 1526 1530 1534 1538 1541 1543 1546 1548 1551 1553 1554 1556 1557 1558 1558 1559 1560 1561 1561 1562 1562 1562 1563 1563 1563 1563 1563
1509 1509 1523 1525 1515 1504 1500 1498 1501 1503 1505 1506 1507 1508 1509 1511 1513 1515 1517 1519 1521 1524 1528 1531 1535 1538 1541 1544 1546 1549 1551 1553 1554 1556 1557 1558 1559 1559 1560 1561 1561 1562 1562 1563 1563 1563 1563 1563 1563
1509 1514 1520 1519 1517 1508 1500 1499 1500 1503 1505 1506 1506 1507 1508 1510 1513 1516 1518 1520 1522 1525 1528 1532 1534 1538 1541 1544 1546 1548 1550 1552 1554 1555 1557 1558 1559 1559 1560 1561 1561 1562 1562 1562 1562 1562 1562 1562 1562
1508 1513 1517 1519 1516 1509 1501 1500 1500 1502 1505 1507 1507 1505 1505 1507 1511 1515 1518 1520 1522 1524 1527 1531 1534 1537 1540 1543 1545 1547 1549 1551 1553 1554 1556 1557 1558 1559 1559 1560 1560 1560 1561 1561 1561 1561 1560 1560 1560
1509 1518 1522 1516 1512 1507 1502 1501 1500 1501 1504 1506 1505 1504 1504 1506 1510 1514 1516 1518 1520 1523 1527 1530 1533 1536 1539 1542 1544 1546 1549 1551 1552 1554 1555 1555 1556 1558 1559 1559 1559 1559 1559 1559 1558 1558 1558 1557 1557
1510 1521 1516 1509 1506 1505 1502 1501 1500 1502 1504 1504 1503 1503 1504 1506 1508 1511 1512 1513 1516 1520 1524 1528 1531 1534 1537 1539 1542 1544 1546 1548 1550 1552 1553 1554 1554 1555 1557 1558 1558 1558 1558 1557 1556 1556 1555 1554 1554
1508 1513 1508 1505 1504 1503 1501 1500 1499 1500 1502 1498 1497 1499 1502 1504 1506 1507 1508 1510 1513 1518 1522 1525 1528 1531 1534 1537 1539 1541 1543 1545 1547 1549 1550 1552 1553 1553 1554 1555 1555 1555 1555 1554 1554 1554 1553 1552 1551
1508 1506 1504 1502 1501 1500 1499 1498 1497 1497 1495 1494 1494 1495 1497 1499 1500 1501 1504 1509 1513 1517 1521 1524 1528 1530 1532 1534 1536 1538 1540 1542 1544 1546 1547 1549 1550 1551 1552 1552 1553 1553 1553 1552 1552 1551 1551 1550 1549
1507 1504 1502 1499 1497 1495 1494 1495 1495 1493 1493 1494 1494 1495 1495 1495 1497 1501 1506 1510 1513 1515 1518 1521 1525 1528 1531 1532 1533 1535 1537 1538 1540 1542 1544 1545 1547 1548 1549 1549 1550 1550 1550 1550 1549 1548 1547 1547 1546
1505 1503 1500 1497 1494 1492 1492 1491 1492 1489 1490 1492 1492 1492 1493 1495 1498 1502 1504 1507 1511 1514 1516 1518 1521 1525 1528 1529 1531 1533 1535 1536 1537 1538 1540 1542 1543 1545 1546 1546 1547 1547 1547 1547 1547 1546 1544 1543 1543
1503 1503 1499 1496 1494 1493 1492 1494 1490 1488 1488 1490 1491 1492 1494 1496 1498 1499 1502 1506 1510 1513 1516 1517 1520 1523 1525 1526 1528 1530 1532 1534 1535 1536 1537 1538 1540 1542 1543 1544 1544 1544 1544 1544 1543 1543 1541 1540 1539
1502 1506 1509 1500 1495 1493 1497 1502 1489 1486 1486 1488 1490 1492 1494 1494 1496 1499 1502 1506 1509 1512 1515 1516 1517 1519 1521 1522 1524 1526 1528 1530 1531 1533 1534 1535 1537 1538 1540 1541 1541 1541 1540 1540 1539 1539 1538 1537 1535
1512 1516 1513 1506 1496 1494 1496 1499 1489 1485 1484 1485 1487 1489 1491 1493 1495 1498 1502 1506 1510 1512 1514 1514 1514 1514 1515 1517 1519 1521 1523 1524 1526 1529 1530 1531 1533 1534 1535 1536 1537 1538 1537 1536 1535 1535 1534 1533 1532
1516 1514 1513 1511 1499 1496 1498 1497 1490 1485 1486 1486 1487 1489 1491 1492 1496 1501 1505 1508 1511 1513 1515 1516 1516 1515 1515 1515 1516 1517 1519 1520 1521 1523 1524 1526 1528 1529 1530 1532 1533 1533 1533 1532 1531 1530 1529 1528 1527
1510 1512 1515 1508 1498 1498 1500 1500 1495 1490 1490 1493 1494 1496 1498 1500 1504 1505 1507 1508 1510 1512 1513 1514 1516 1516 1515 1513 1513 1513 1513 1515 1516 1517 1519 1521 1523 1524 1526 1527 1528 1529 1528 1527 1526 1525 1524 1522 1522
1509 1513 1514 1507 1500 1500 1501 1503 1499 1497 1497 1499 1500 1501 1502 1503 1504 1504 1506 1507 1509 1510 1510 1511 1511 1512 1512 1511 1510 1509 1510 1511 1512 1513 1514 1517 1519 1521 1522 1523 1523 1523 1522 1521 1520 1519 1517 1516 1516
1509 1513 1513 1511 1505 1502 1503 1510 1507 1504 1502 1502 1502 1502 1501 1501 1501 1502 1504 1505 1506 1507 1507 1506 1506 1506 1507 1507 1506 1505 1506 1506 1507 1508 1509 1511 1515 1516 1516 1518 1518 1517 1516 1514 1514 1513 1511 1509 1509
1513 1506 1507 1507 1513 1519 1513 1524 1514 1512 1508 1505 1504 1502 1500 1500 1500 1500 1500 1500 1501 1501 1502 1501 1501 1500 1501 1501 1500 1498 1497 1498 1500 1502 1504 1507 1510 1511 1512 1512 1512 1511 1510 1508 1507 1506 1504 1504 1503
1506 1503 1506 1507 1511 1519 1517 1522 1522 1513 1512 1508 1505 1503 1501 1499 1498 1497 1497 1497 1497 1497 1496 1495 1495 1494 1494 1494 1490 1489 1488 1491 1495 1498 1501 1503 1505 1507 1507 1508 1507 1506 1505 1504 1502 1501 1500 1499 1498
1504 1507 1512 1518 1521 1529 1519 1524 1524 1515 1511 1509 1506 1504 1502 1500 1498 1496 1494 1493 1492 1492 1491 1490 1489 1488 1487 1485 1483 1481 1482 1487 1492 1495 1498 1500 1502 1503 1503 1504 1503 1502 1501 1500 1499 1498 1497 1495 1494
1509 1521 1536 1535 1540 1534 1521 1523 1522 1509 1507 1507 1507 1504 1502 1501 1499 1496 1494 1492 1490 1489 1487 1486 1484 1483 1482 1483 1482 1481 1481 1484 1489 1493 1496 1497 1498 1499 1499 1500 1500 1500 1499 1498 1497 1495 1494 1493 1493
1514 1521 1540 1546 1547 1538 1524 1523 1514 1505 1504 1504 1504 1502 1501 1499 1497 1495 1493 1490 1488 1486 1484 1482 1481 1481 1481 1481 1480 1480 1482 1486 1490 1492 1494 1494 1494 1495 1496 1497 1497 1497 1497 1496 1495 1494 1493 1492 1491
1517 1524 1524 1538 1540 1544 1534 1522 1509 1503 1502 1501 1500 1499 1498 1496 1494 1492 1489 1487 1485 1483 1481 1480 1479 1479 1479 1480 1480 1480 1483 1487 1490 1491 1491 1491 1492 1492 1493 1493 1494 1494 1495 1494 1494 1493 1492 1490 1489
1513 1521 1533 1538 1543 1548 1538 1529 1520 1504 1501 1498 1497 1496 1494 1492 1490 1488 1486 1483 1481 1480 1478 1478 1477 1477 1477 1479 1479 1480 1483 1486 1488 1489 1490 1490 1491 1491 1491 1491 1492 1492 1491 1491 1492 1492 1491 1490 1488
1519 1525 1531 1539 1540 1547 1548 1532 1505 1499 1495 1495 1494 1492 1491 1489 1486 1484 1482 1480 1478 1476 1475 1475 1474 1475 1475 1477 1479 1481 1483 1485 1487 1488 1488 1489 1489 1489 1489 1491 1491 1490 1489 1488 1489 1490 1490 1489 1488
1511 1518 1527 1534 1536 1541 1544 1529 1494 1494 1492 1492 1490 1488 1487 1485 1483 1481 1479 1477 1476 1475 1474 1473 1473 1474 1474 1476 1478 1480 1482 1484 1486 1486 1486 1486 1486 1487 1488 1489 1489 1488 1487 1486 1487 1489 1489 1488 1488